Cotulla, TX

1:57 PM CST on November 11, 2019 (GMT -0600)
Cotulla-La Salle County

Weather History for KCOT - August, 2019

Change the Weather History Date:

Wednesday, August 14, 2019

  Actual Average Record
Temperature  
Mean Temperature 91 °F -  
Max Temperature 105 °F 97 °F 106 °F (2013)
Min Temperature 78 °F 73 °F 69 °F (2004)
Cooling Degree Days 26    
Growing Degree Days 41 (Base 50)    
Moisture  
Dew Point 66 °F    
Average Humidity 50    
Maximum Humidity 87    
Minimum Humidity 20    
Precipitation  
Precipitation 0.00 in - - ()
Sea Level Pressure  
Sea Level Pressure 29.90 in    
Wind  
Wind Speed 8 mph (ESE)    
Max Wind Speed 12 mph    
Max Gust Speed -    
Visibility 10 miles    
Events      
Averages and records for this station are not official NWS values.
T = Trace of Precipitation, MM = Missing Value Source: NWS Daily Summary

Daily Weather History Graph

Daily Weather History Graph

Search for Another Location

Airport or City:

Astronomy

Aug. 14, 2019 Rise Set
Actual Time 7:05 AM CDT 8:16 PM CDT
Civil Twilight 6:40 AM CDT 8:41 PM CDT
Nautical Twilight 6:11 AM CDT 9:11 PM CDT
Astronomical Twilight 5:41 AM CDT 9:41 PM CDT
Moon 8:06 PM CDT (8/14) 6:12 AM CDT (8/14)
Length of Visible Light 14h 00m
Length of Day
13h 11m
Waxing Gibbous, 99% of the Moon is Illuminated
Aug 14
Waxing Gibbous
Aug 15
Full
Aug 23
Last Quarter
Aug 30
New
Sep 5
First Quarter

Hourly Weather History & Observations

Time (CDT) Temp. Heat Index Dew Point Humidity Pressure Visibility Wind Dir Wind Speed Gust Speed Precip Events Conditions
12:53 AM 86.0 °F 93.8 °F 73.9 °F 67% 29.90 in 10.0 mi SE 11.5 mph - N/A   Clear
1:53 AM 84.0 °F 91.2 °F 73.9 °F 72% 29.89 in 10.0 mi SE 9.2 mph - N/A   Clear
2:53 AM 82.9 °F 89.4 °F 73.9 °F 74% 29.89 in 10.0 mi SE 8.1 mph - N/A   Clear
3:53 AM 82.0 °F 87.9 °F 73.9 °F 76% 29.90 in 10.0 mi ESE 5.8 mph - N/A   Clear
4:53 AM 80.1 °F 84.5 °F 73.9 °F 81% 29.90 in 10.0 mi ESE 5.8 mph - N/A   Clear
5:53 AM 79.0 °F - 73.9 °F 84% 29.90 in 10.0 mi East 5.8 mph - N/A   Clear
6:53 AM 78.1 °F - 73.9 °F 87% 29.91 in 10.0 mi ESE 6.9 mph - N/A   Clear
7:53 AM 79.0 °F - 73.9 °F 84% 29.93 in 10.0 mi ESE 6.9 mph - N/A   Clear
8:53 AM 82.9 °F 89.4 °F 73.9 °F 74% 29.94 in 10.0 mi ESE 8.1 mph - N/A   Clear
9:53 AM 86.0 °F 92.2 °F 72.0 °F 63% 29.95 in 10.0 mi SSE 5.8 mph - N/A   Clear
10:53 AM 90.0 °F 96.4 °F 71.1 °F 54% 29.95 in 10.0 mi Variable 5.8 mph - N/A   Clear
11:53 AM 93.9 °F 97.0 °F 66.0 °F 40% 29.96 in 10.0 mi ESE 9.2 mph - N/A   Clear
12:53 PM 98.1 °F 98.1 °F 60.1 °F 28% 29.95 in 10.0 mi SSE 10.4 mph - N/A   Clear
1:53 PM 100.9 °F 100.5 °F 57.9 °F 24% 29.93 in 10.0 mi North - - N/A   Clear
2:53 PM 102.9 °F 103.0 °F 57.9 °F 23% 29.89 in 10.0 mi NE 9.2 mph - N/A   Clear
3:53 PM 104.0 °F 103.4 °F 57.0 °F 21% 29.86 in 10.0 mi Variable 6.9 mph - N/A   Clear
4:53 PM 104.0 °F 102.9 °F 55.9 °F 20% 29.84 in 10.0 mi NE 8.1 mph - N/A   Clear
5:53 PM 104.0 °F 102.9 °F 55.9 °F 20% 29.83 in 10.0 mi East 11.5 mph - N/A   Partly Cloudy
6:53 PM 102.9 °F 102.4 °F 57.0 °F 22% 29.84 in 10.0 mi East 6.9 mph - N/A   Clear
7:53 PM 100.9 °F 100.5 °F 57.9 °F 24% 29.86 in 10.0 mi ENE 10.4 mph - N/A   Clear
8:53 PM 96.1 °F 95.2 °F 57.9 °F 28% 29.87 in 10.0 mi East 4.6 mph - N/A   Clear
9:53 PM 93.0 °F 92.3 °F 59.0 °F 32% 29.89 in 10.0 mi East 5.8 mph - N/A   Clear
10:53 PM 91.0 °F 96.6 °F 70.0 °F 50% 29.91 in 10.0 mi SSE 10.4 mph - N/A   Clear
11:53 PM 89.1 °F 96.0 °F 72.0 °F 57% 29.95 in 10.0 mi SE 10.4 mph - N/A   Clear